CAPE
0 0 0 0 0 0 0 0 0 0 0 0 0 0 0 0 0 0 0 0 0 0 0 0 0 11 53 109 285 515 617 676 759 862 857 901 1030 997 964 918 926 938 896 1043
0 0 0 0 0 0 0 0 0 0 0 0 0 0 0 0 0 0 0 0 0 0 0 0 0 45 143 196 349 559 714 737 892 1038 1085 1024 984 1053 1081 1048 1090 1015 929 966
0 0 0 0 0 0 0 0 0 0 0 0 0 0 0 0 0 0 0 0 0 0 0 0 5 123 191 313 514 666 773 925 1090 1215 1285 1312 1239 1135 1097 1119 1123 1116 1078 1004
0 0 0 0 0 0 0 0 0 0 0 0 0 0 0 0 0 0 0 0 0 0 0 0 11 78 246 331 598 858 935 1035 1257 1424 1437 1479 1517 1371 1283 1236 1173 1206 1196 1118
0 0 0 0 0 0 0 0 0 0 0 0 0 0 0 0 0 0 0 0 0 0 0 0 0 69 188 388 660 904 1142 1239 1352 1530 1592 1629 1687 1638 1595 1498 1367 1383 1302 1205
0 0 0 0 0 0 0 0 0 0 0 0 0 0 0 0 0 0 0 0 0 0 0 0 0 1 164 413 717 884 1309 1424 1547 1650 1692 1722 1877 1890 1849 1755 1619 1579 1400 1285
0 0 0 0 0 3 0 0 0 0 0 0 0 0 0 0 0 2 16 0 0 0 0 0 32 246 372 528 719 974 1336 1666 1770 1849 1944 1945 2005 2148 2164 2104 1979 1797 1635 1480
0 0 0 0 3 16 0 0 1 0 0 0 0 0 0 0 79 286 394 762 468 115 191 94 59 422 651 751 828 1034 1319 1624 1838 2054 2184 2212 2263 2233 2343 2402 2392 2120 1866 1841
0 0 0 0 1 25 0 10 1 0 0 0 0 0 6 107 266 201 172 108 5 23 208 741 1231 167 483 836 855 815 1110 1431 1896 2115 2303 2325 2428 2417 2493 2510 2483 2323 2120 2100
8 0 0 9 28 10 3 0 1 18 43 34 98 137 124 67 70 40 1 0 0 0 0 0 0 0 0 1 947 1377 888 987 1458 2011 2291 2543 2576 2534 2572 2614 2576 2289 2228 2120
0 0 23 49 19 22 19 3 41 32 39 30 0 0 0 0 0 0 0 0 0 0 0 0 0 0 0 0 0 22 621 937 1124 1421 1833 2328 2507 2554 2610 2684 2592 2493 2233 1429
0 0 7 5 26 0 50 23 3 11 6 4 16 26 17 20 0 2 16 1 13 70 36 49 41 0 0 0 0 0 0 190 695 1180 1487 2090 1459 1271 1200 2165 2066 1757 1150 740
7 55 30 79 11 19 50 19 0 19 4 11 25 49 21 2 0 9 43 77 85 138 312 265 240 52 0 0 0 0 0 267 889 1070 1240 1043 1258 1316 1272 427 569 432 463 270
13 5 174 115 85 56 8 0 0 2 0 9 20 12 24 12 12 83 91 67 85 117 196 268 281 204 75 100 19 18 7 25 1109 1157 857 831 711 760 570 500 201 0 0 0
2 5 123 70 64 22 0 0 0 0 0 0 0 0 0 0 2 5 35 19 0 0 3 32 171 229 181 328 251 0 1 1 64 120 41 426 264 237 67 12 0 0 0 0
8 0 0 8 29 0 0 0 0 0 0 0 0 0 0 0 0 0 0 7 59 10 0 0 0 6 86 208 35 0 0 0 0 0 0 0 1 0 1 0 0 0 0 0
3 0 43 10 13 3 0 0 0 0 0 6 0 0 0 0 0 0 0 0 0 0 0 0 0 0 0 101 179 57 0 0 0 14 16 0 0 9 1 0 0 0 0 0
17 0 0 0 0 1 0 3 0 8 5 15 2 0 0 0 0 0 0 0 0 0 0 0 0 0 0 0 10 55 17 2 2 0 1 0 0 0 0 0 0 1 1 0
3 0 0 0 0 6 16 2 1 14 3 0 0 0 0 0 0 0 0 0 0 0 0 0 0 0 1 0 0 0 0 7 4 1 5 6 2 0 0 0 0 0 0 0
6 3 0 0 0 0 1 1 3 0 0 0 0 0 0 0 0 0 0 0 0 0 0 0 0 0 2 0 1 3 2 0 20 34 22 6 17 11 4 3 2 0 0 0
1 0 0 0 0 0 0 0 0 0 0 0 0 0 0 0 0 0 0 0 0 0 0 0 0 0 0 0 0 1 2 2 0 0 0 3 2 17 2 0 0 0 0 0
0 0 0 0 0 0 0 0 0 0 0 0 0 0 0 0 0 0 0 0 0 0 0 0 0 0 0 0 0 0 0 0 0 1 0 2 1 3 0 0 0 1 0 0
0 0 0 0 0 0 0 0 0 0 0 0 0 0 0 0 0 0 0 0 0 0 0 0 0 0 0 0 0 0 0 0 0 0 1 0 8 17 7 8 5 0 0 0
0 0 0 0 0 0 0 0 0 0 0 0 0 0 0 0 0 0 0 0 0 0 0 0 0 0 0 0 0 0 0 0 0 0 0 0 0 0 0 0 0 0 0 0
0 0 0 0 0 0 0 0 0 0 0 0 0 0 0 0 0 0 0 0 0 0 0 0 0 0 0 0 0 0 0 0 0 0 0 0 0 0 0 0 0 0 0 0
0 0 0 0 0 0 0 0 0 0 0 0 0 0 0 0 0 0 0 0 0 0 0 0 0 0 0 0 0 0 0 0 0 0 0 0 0 0 0 0 0 0 0 0
0 0 0 0 0 0 0 0 0 0 0 0 0 0 0 0 0 0 0 0 0 0 0 0 0 0 0 0 0 0 0 0 0 0 0 0 0 1 0 0 0 0 0 0
CIN
0 0 0 0 0 0 0 0 0 0 0 0 0 0 0 0 0 0 0 0 0 0 0 0 0 -464 -643 -623 -732 -703 -657 -640 -626 -613 -567 -501 -445 -379 -347 -321 -306 -292 -278 -253
0 0 0 0 0 0 0 0 0 0 0 0 0 0 0 0 0 0 0 0 0 0 0 0 0 -563 -644 -623 -634 -710 -667 -665 -661 -626 -581 -544 -510 -430 -374 -362 -302 -315 -322 -293
0 0 0 0 0 0 0 0 0 0 0 0 0 0 0 0 0 0 0 0 0 0 0 0 -324 -556 -524 -568 -671 -740 -700 -699 -677 -627 -585 -543 -503 -463 -412 -393 -364 -343 -331 -324
0 0 0 0 0 0 0 0 0 0 0 0 0 0 0 0 0 0 0 0 0 0 0 0 -455 -502 -591 -631 -695 -698 -707 -722 -680 -640 -603 -532 -475 -468 -431 -427 -414 -393 -383 -371
0 0 0 0 0 0 0 0 0 0 0 0 0 0 0 0 0 0 0 0 0 0 0 0 0 -365 -466 -548 -622 -650 -658 -711 -689 -664 -625 -545 -506 -495 -449 -423 -433 -416 -410 -396
0 0 0 0 0 0 0 0 0 0 0 0 0 0 0 0 0 0 0 0 0 0 0 0 0 -43 -546 -501 -555 -587 -650 -697 -701 -664 -613 -541 -505 -459 -413 -388 -398 -358 -370 -394
0 0 0 0 0 -47 0 0 0 0 0 0 0 0 0 0 0 -162 -224 0 0 0 0 0 -644 -589 -485 -530 -503 -537 -688 -649 -643 -617 -558 -540 -524 -416 -335 -300 -274 -291 -334 -391
0 0 0 0 -11 -13 0 0 0 0 0 0 0 0 0 -24 -590 -592 -493 -473 -563 -482 -502 -411 -697 -526 -475 -473 -587 -617 -574 -528 -518 -489 -455 -451 -461 -535 -422 -223 -226 -232 -225 -230
0 0 0 0 -24 -199 -8 -305 0 0 0 0 0 0 -405 -497 -550 -594 -650 -644 -82 -62 -622 -648 -616 -683 -555 -693 -703 -653 -605 -541 -479 -443 -430 -392 -360 -375 -300 -261 -274 -234 -263 -212
-7 0 0 -122 -127 -270 -241 -27 -97 -531 -493 -503 -482 -533 -570 -622 -641 -681 -82 0 0 0 0 0 0 0 0 -186 -576 -492 -531 -572 -549 -460 -421 -334 -335 -257 -216 -245 -282 -327 -306 -355
0 0 -19 -19 -125 -284 -369 -201 -459 -514 -580 -588 0 0 0 0 0 0 0 0 0 0 0 0 0 0 0 0 0 -407 -581 -529 -533 -516 -430 -345 -316 -293 -255 -239 -201 -225 -206 -308
0 0 -17 -10 -112 0 -391 -336 -520 -553 -625 -714 -670 -634 -674 -679 0 -229 -667 -425 -681 -724 -728 -804 -568 0 0 0 0 0 0 -664 -561 -502 -471 -310 -431 -456 -458 -228 -196 -220 -341 -401
0 -1 -16 -27 -83 -167 -330 -392 0 -507 -567 -541 -549 -548 -561 -568 0 -680 -606 -603 -642 -659 -662 -659 -641 -725 0 0 0 0 0 -821 -562 -485 -475 -524 -364 -295 -283 -662 -551 -514 -440 -461
-3 -2 0 -2 -26 -88 -229 -25 0 -439 0 -418 -440 -464 -493 -494 -492 -448 -508 -590 -606 -603 -594 -608 -596 -602 -743 -711 -849 -921 -1077 -856 -343 -322 -412 -369 -342 -273 -326 -386 -592 0 0 0
-9 -17 -13 -19 -32 -86 0 0 0 0 0 0 0 0 0 0 -321 -239 -532 -585 0 0 -308 -345 -475 -501 -548 -461 -537 0 -418 -148 -586 -526 -264 -132 -165 -230 -404 -292 0 0 0 0
-8 0 0 -18 -76 -8 0 0 0 0 -43 0 0 0 0 0 0 0 0 -184 -387 -477 0 0 0 -126 -499 -452 -621 -108 0 0 0 0 0 0 0 0 -235 0 0 0 0 0
-33 0 -23 -9 -22 -33 0 0 0 0 0 -52 0 0 0 0 0 0 0 0 0 0 0 0 0 0 0 -457 -360 -327 -16 0 0 -1 -16 0 0 0 -1 -7 0 0 0 0
-16 0 0 0 -27 -42 -21 -21 0 -21 -34 -30 -35 0 0 0 0 0 0 0 0 0 0 0 0 0 0 0 -130 -212 -297 0 0 0 0 0 0 0 0 0 0 0 0 0
-1 0 0 0 0 -17 -15 -13 -5 -30 -40 -20 0 0 0 0 0 0 0 0 0 0 0 0 0 0 -94 0 0 0 0 -116 -126 -13 -125 -128 -138 0 0 0 -104 0 0 0
-25 -4 -2 0 0 0 -31 -33 -30 0 0 0 0 0 0 0 0 0 0 0 0 0 0 0 0 0 -138 0 -24 -131 -100 -6 -116 -98 -93 -107 -119 -126 -135 -142 -146 0 0 0
-50 0 0 0 0 0 0 0 0 0 0 0 0 0 0 0 0 0 0 0 0 0 0 0 0 0 0 0 -15 -91 -87 -73 -76 0 0 -85 -75 -59 -92 0 0 0 0 0
0 0 0 0 0 0 0 0 0 0 0 0 0 0 0 0 0 0 0 0 0 0 0 0 0 0 0 0 0 0 0 0 0 -47 0 -101 -99 -50 0 0 0 0 0 0
0 0 0 0 0 0 0 0 0 0 0 0 0 0 0 0 0 0 0 0 0 0 0 0 0 0 0 0 0 0 0 0 0 0 -35 0 -74 -76 -68 -64 -46 0 0 0
0 0 0 0 0 0 0 0 0 0 0 0 0 0 0 0 0 0 0 0 0 0 0 0 0 0 0 0 0 0 0 0 0 0 0 0 0 0 0 0 0 0 -21 0
0 0 0 0 0 0 0 0 0 0 0 0 0 0 0 0 0 0 0 0 0 0 0 0 0 0 0 0 0 0 0 0 0 0 0 0 0 0 0 0 0 0 0 0
0 0 0 0 0 0 0 0 0 0 0 0 0 0 0 0 0 0 0 0 0 0 0 0 0 0 0 0 0 0 0 0 0 0 0 0 0 0 0 0 0 0 0 0
0 0 0 0 0 0 0 0 0 0 0 0 0 0 0 0 0 0 0 0 0 0 0 0 0 0 0 0 0 0 0 0 0 0 0 0 0 0 0 0 0 0 0 0
Wind_Speed
36 41 40 42 45 45 44 39 50 50 56 50 45 42 41 41 39 40 43 40 36 28 18 13 17 19 20 20 20 19 20 27 32 26 24 23 21 18 18 20 19 19 19 19
45 41 45 48 46 46 46 46 48 60 56 40 48 34 40 46 45 44 42 43 37 30 21 14 16 19 20 19 21 20 22 30 25 22 23 24 22 20 18 19 20 19 20 21
51 43 46 55 48 51 50 42 43 59 50 40 43 37 30 26 21 37 40 43 38 21 12 13 16 17 20 23 19 22 23 21 21 22 23 23 20 19 19 21 19 21 21 21
49 44 59 44 40 36 46 55 48 49 44 42 41 52 47 35 28 31 39 47 28 31 14 14 14 16 14 17 18 20 21 19 18 19 21 19 20 22 21 20 22 22 22 22
50 52 55 50 36 37 42 47 44 43 45 43 36 42 42 32 33 34 34 33 33 31 32 29 16 16 18 19 18 19 21 21 20 20 19 20 22 23 23 21 21 24 22 22
45 54 59 39 38 38 34 54 33 37 37 39 36 46 45 38 32 32 31 27 28 27 27 29 28 22 19 18 18 19 20 23 20 20 19 20 20 21 21 22 21 19 21 23
58 54 50 40 37 33 47 51 43 40 41 40 40 40 32 23 23 22 21 21 19 19 19 20 19 15 17 18 18 17 19 21 20 19 19 21 18 21 20 22 22 22 22 23
53 57 66 37 37 43 41 42 41 39 37 38 33 26 23 20 18 17 15 14 14 13 16 18 18 15 15 17 23 21 21 24 24 24 20 22 20 19 21 24 23 24 26 26
45 51 37 38 38 33 34 36 36 37 34 30 25 22 20 16 12 10 10 10 10 11 12 14 15 15 18 22 24 23 22 22 23 21 28 24 26 25 21 23 23 23 25 27
47 47 48 40 34 34 31 31 27 24 20 18 19 14 12 10 9 8 9 10 11 12 13 14 16 16 17 20 21 23 27 27 30 28 28 25 29 25 25 25 24 24 24 24
44 49 39 38 36 30 27 23 16 12 8 7 9 8 5 5 5 7 9 9 11 13 14 17 19 21 24 27 29 31 31 30 29 28 28 30 31 31 30 28 29 29 27 26
46 37 42 38 33 28 24 22 13 8 6 4 3 3 2 3 6 8 11 13 14 16 18 20 22 24 27 28 31 36 41 39 36 34 34 33 33 33 31 30 28 26 24 21
35 30 35 30 26 23 20 18 13 6 5 5 6 4 5 5 8 10 12 15 17 19 21 25 28 30 30 33 36 39 42 43 41 37 35 35 34 33 31 26 22 19 19 17
39 37 30 24 24 18 16 13 13 6 6 6 5 7 6 7 9 11 13 15 17 19 21 24 27 29 33 35 36 37 36 36 35 31 32 35 34 31 27 25 22 20 17 18
38 41 36 29 25 16 12 9 6 8 11 9 5 6 7 8 10 12 13 15 17 19 22 23 25 27 28 29 30 32 27 28 27 28 37 34 34 31 27 21 20 20 20 20
32 41 35 36 23 17 12 8 6 8 9 12 10 8 8 10 10 13 15 17 18 20 22 24 25 27 27 27 29 24 24 22 23 20 19 27 11 19 22 18 17 22 25 26
39 39 38 17 14 13 11 2 5 4 7 9 11 9 10 12 13 14 16 18 19 20 23 24 26 26 27 25 25 23 22 25 25 12 9 21 25 22 11 15 18 16 16 14
24 27 14 9 9 11 7 3 3 4 5 8 9 11 13 15 16 16 17 18 20 22 24 25 25 24 23 23 22 21 22 22 21 18 16 13 13 8 6 5 5 13 18 12
5 5 7 2 5 2 2 6 7 7 10 10 12 14 14 15 18 18 19 19 20 21 24 24 24 22 21 20 20 20 19 19 20 20 18 17 15 13 13 15 15 12 7 5
4 8 6 8 10 8 4 9 18 12 10 13 16 17 18 18 20 21 20 20 20 20 22 23 22 21 21 21 20 18 18 18 17 15 14 12 10 9 7 6 4 2 4 8
18 14 13 14 13 16 17 15 17 15 16 18 18 18 19 20 22 21 20 20 20 20 22 23 22 21 21 20 20 18 17 18 17 17 15 15 15 13 13 13 13 10 9 6
15 14 15 19 21 19 18 15 16 17 19 20 19 19 20 21 21 22 23 21 20 22 22 23 23 23 23 23 21 19 18 17 16 16 16 15 14 13 13 13 11 7 6 5
21 20 18 17 19 20 20 18 19 20 19 19 19 20 21 21 21 21 22 21 21 23 23 24 24 25 25 24 23 22 20 18 18 18 16 16 16 16 16 16 14 14 13 9
22 24 22 20 19 21 21 20 21 21 21 20 19 18 18 19 21 21 21 22 23 23 24 25 25 26 25 23 23 23 23 21 20 20 18 17 17 16 17 17 16 16 16 14
25 24 24 23 23 22 22 21 21 20 21 20 21 21 21 21 21 21 22 23 24 24 24 26 27 26 25 24 24 24 23 22 21 21 20 19 19 18 18 17 15 14 16 17
27 26 25 25 24 24 24 24 22 22 22 22 23 23 23 23 23 24 25 25 26 26 26 27 27 26 26 25 25 25 24 24 23 22 21 20 20 19 18 17 17 17 17 18
27 26 25 25 25 24 24 24 23 23 23 23 23 24 24 25 25 26 26 27 27 27 27 28 28 27 27 26 26 26 25 25 25 24 23 22 22 21 20 19 19 18 18 19
Wind_Direction
259 258 260 258 256 255 255 254 252 248 232 238 246 250 241 240 245 234 241 258 268 279 275 238 216 207 209 214 204 207 204 200 202 203 203 201 203 205 206 204 210 213 223 224
256 263 259 258 257 258 258 259 262 245 250 261 244 269 264 241 250 241 231 240 264 278 277 246 225 218 208 223 208 208 205 202 203 205 203 203 204 205 206 207 207 221 220 219
254 258 262 255 255 256 258 260 260 250 258 266 260 265 271 221 261 224 228 258 266 279 264 240 223 219 221 209 209 209 208 209 207 205 206 206 210 211 209 209 216 212 229 234
255 257 251 256 262 264 262 257 259 261 264 264 265 250 260 271 271 273 256 248 271 274 261 227 239 241 231 233 224 222 227 227 225 217 215 219 216 215 215 214 212 216 219 226
252 250 255 257 262 260 264 262 264 262 261 265 270 266 264 273 272 272 274 274 268 266 271 269 242 227 244 247 234 232 228 227 228 220 222 224 219 216 218 219 216 215 227 232
249 249 249 256 260 269 268 259 278 269 260 257 263 259 261 270 277 272 274 272 275 277 277 276 272 263 251 246 243 238 233 224 228 227 229 233 231 223 228 228 229 231 233 231
246 250 252 258 269 273 255 258 272 273 267 261 256 265 270 276 282 280 278 276 279 283 282 286 282 267 253 255 251 237 252 250 245 237 233 242 243 250 244 242 247 242 241 239
246 248 248 260 267 258 268 274 272 272 269 264 260 259 267 273 282 281 279 288 293 288 290 292 288 279 267 265 280 279 268 264 260 258 249 253 247 236 248 250 249 253 255 258
247 249 260 256 261 271 273 277 274 271 272 266 257 254 262 261 273 289 287 292 304 311 312 308 305 294 283 284 288 285 274 267 262 254 261 256 256 258 250 242 245 249 253 260
255 252 253 257 261 267 274 275 279 279 275 266 253 247 244 253 260 283 296 293 301 308 305 310 310 309 304 302 302 294 283 279 273 267 265 257 261 255 254 251 245 242 235 245
257 252 258 252 255 262 268 269 280 287 281 270 257 241 229 252 280 292 304 313 313 306 304 304 306 306 305 302 299 295 291 289 280 272 265 260 257 254 253 252 252 251 256 255
252 256 251 254 252 255 257 256 267 269 273 295 315 299 298 306 302 303 311 314 316 306 304 307 308 311 310 310 307 299 291 288 284 277 270 264 261 265 268 258 256 253 254 252
257 264 258 253 247 243 244 247 252 260 287 288 304 318 328 312 314 316 318 320 316 309 305 307 309 311 314 314 311 305 296 292 285 277 268 263 259 258 258 261 249 247 246 229
234 243 244 240 234 236 232 240 247 254 281 293 316 321 326 333 323 328 328 325 325 328 324 319 318 316 315 315 314 311 307 301 296 284 271 260 249 244 238 233 233 234 239 251
225 222 222 231 225 220 216 221 241 269 283 267 297 320 333 354 345 331 336 333 334 337 334 332 327 328 331 328 327 325 323 318 314 309 303 263 238 226 223 226 231 237 249 257
217 211 213 215 203 194 190 205 222 287 282 268 273 305 333 347 353 351 344 336 335 334 332 332 331 337 337 337 339 337 340 333 330 337 346 351 227 188 203 224 248 262 251 270
194 203 205 182 192 185 185 211 235 308 285 289 297 315 336 336 335 341 340 339 338 337 335 336 332 338 343 344 351 354 350 342 345 347 310 293 327 258 237 248 257 283 244 183
173 181 172 138 150 145 153 156 26 345 343 321 318 352 2 355 344 338 337 336 335 338 341 333 338 340 343 344 354 5 8 11 20 29 26 47 57 353 12 50 125 127 130 140
114 139 172 186 202 111 151 46 26 19 35 19 18 16 15 10 16 7 1 1 354 348 336 331 332 336 337 338 353 353 357 9 23 28 37 46 45 41 64 90 102 103 114 153
84 85 101 79 59 57 69 43 41 24 5 12 18 17 13 7 9 11 3 7 355 348 340 339 339 337 339 337 342 349 348 351 356 360 3 11 44 61 47 32 22 33 293 274
59 71 70 59 50 42 46 50 43 24 20 20 21 18 19 20 22 15 10 12 352 350 355 356 352 350 347 344 347 346 346 348 351 344 339 327 323 334 320 307 296 298 287 272
46 50 48 47 49 43 40 41 42 36 28 25 23 21 25 23 22 23 17 9 354 359 1 0 0 3 2 5 358 351 346 345 348 348 342 339 340 341 347 329 323 312 304 293
35 32 28 31 32 35 37 34 32 28 25 23 21 24 29 24 16 15 11 358 4 7 8 3 1 6 11 9 6 4 360 352 344 344 344 341 335 335 329 325 318 313 318 303
23 27 28 24 24 25 25 20 26 26 28 24 18 11 9 9 10 6 6 3 1 4 6 1 1 1 1 359 1 3 4 359 350 348 350 350 344 343 337 331 324 319 293 300
16 18 20 21 26 26 28 22 20 13 13 9 6 2 3 3 6 358 360 358 356 356 353 352 355 355 356 355 353 354 351 348 348 351 351 343 338 338 333 326 318 306 293 295
14 18 18 16 15 17 17 16 10 6 8 7 6 2 2 3 3 2 2 359 357 354 350 345 344 344 346 347 347 347 347 345 342 343 343 341 339 340 343 333 321 311 310 313
8 6 4 5 4 5 7 7 6 2 4 5 6 1 1 358 355 354 353 350 349 350 350 350 349 348 346 343 341 340 340 339 339 337 336 337 337 333 332 330 328 325 326 326